Regional Weather Roundup
Issued by NWS

Home | Current Version | Previous Version | Text Only | Print | Product List | Glossary On
Versions: 1 2 3 4 5 6 7 8 9 10 11 12 13 14 15 16 17 18 19 20 21 22 23 24 25 26 27 28 29 30 31 32 33 34 35 36 37 38 39 40 41 42 43 44 45 46 47 48 49 50
000
ASUS44 KLIX 211010
RWRLA
LOUISIANA WEATHER ROUNDUP
NATIONAL WEATHER SERVICE NEW ORLEANS LA
400 AM CST SUN DEC 21 2014

NOTE: "FAIR" INDICATES FEW OR NO CLOUDS BELOW 12,000 FEET WITH NO
      SIGNIFICANT WEATHER AND/OR OBSTRUCTIONS TO VISIBILITY.
      SKY/WX - SKY CONDITION AND SIGNIFICANT WEATHER.
      TMP - AIR TEMPERATURE.    DP   - DEWPOINT TEMPERATURE.
      RH  - RELATIVE HUMIDITY.  PRES - PRESSURE.
      HX  - HEAT INDEX.         WCI  - WIND CHILL INDEX.

*  THESE STATIONS ARE NOT NWS OR FAA STATIONS AND ARE NOT UNDER
   NWS QUALITY CONTROL.

LAZ040-048-061>063-065-066-069-211100-
SOUTHEAST LOUISIANA

CITY           SKY/WX    TMP DP  RH WIND       PRES   REMARKS
N.O. AUDUBON     N/A     53  50  90 MISG        N/A
N.O. INTL ARPT CLOUDY    53  47  79 E7        30.12F
N.O. LAKEFRONT CLOUDY    54  47  77 E10       30.13S
N.O. DOWNTOWN* CLOUDY    52  45  76 NE6       30.12F
SLIDELL        CLOUDY    51  47  86 CALM      30.12S
BATON ROUGE    CLOUDY    47  44  90 NE5       30.12F
BOOTHVILLE     CLOUDY    54  53  97 NE7       30.10S
BELLE CHASSE   CLOUDY    53  49  86 NE7       30.11F
BOGALUSA*        N/A     49  44  81 NE3       30.14F
GALLIANO*      CLOUDY    55  51  89 MISG      30.12S
NEW ROADS*     PTSUNNY   43  42  97 NE3       30.14F
GONZALES*      CLOUDY    49  49 100 CALM      30.12F
HAMMOND*       NOT AVBL
HOUMA*         CLOUDY    51  49  92 NE6       30.12S
PORT FOURCHON* CLOUDY    55  52  88 NE14      30.12F

$$

LAZ041-044-053-054-211100-
SOUTHWEST LOUISIANA

CITY           SKY/WX    TMP DP  RH WIND       PRES   REMARKS
LAKE CHARLES   CLEAR     42  41  96 N3        30.13F
LAFAYETTE      CLOUDY    48  46  93 NE3       30.13F FOG
PATTERSON      CLOUDY    52  46  82 E5        30.13S
SALT POINT       N/A     54  49  83 CALM      30.11F
NEW IBERIA     CLOUDY    49  47  93 NE6       30.13F
CHENAULT AIRPK NOT AVBL

$$

LAZ027-028-211100-
CENTRAL LOUISIANA

CITY           SKY/WX    TMP DP  RH WIND       PRES   REMARKS
FORT POLK      NOT AVBL
ALEXANDRIA INT CLEAR     37  36  96 CALM      30.14F FOG
ALEXANDRIA     CLEAR     35  34  96 CALM      30.14F

$$

LAZ001-002-211100-
NORTHWEST LOUISIANA

CITY           SKY/WX    TMP DP  RH WIND       PRES   REMARKS
SHREVEPORT     PTCLDY    34  34 100 W3        30.15F FOG
BARKSDALE AFB  NOT AVBL
DTN SHREVEPORT FOG       34  33  96 CALM      30.17S VSB 3/4

$$

LAZ014-016-211100-
NORTHEAST LOUISIANA

CITY           SKY/WX    TMP DP  RH WIND       PRES   REMARKS
MONROE         CLEAR     37  35  92 NE6       30.17F WCI  32
TALLULAH       CLEAR     39  36  89 N3        30.17F

$$




USA.gov is the U.S. government's official web portal to all federal, state and local government web resources and services.